Flag for Germany Weather past 2 weeks in Krefeld, North Rhine-Westphalia, Germany

Now
49 °F

Light rain. Low clouds.


Feels Like: 45 °F
Forecast: 39 / 46 °F
Wind: 9 mph from Southwest

Location: Duesseldorf

Current Time: Mar 31, 2015 at 6:05:57 AM

Latest Report: Mar 31, 2015 at 4:00 AM


Visibility: 7 mi

Pressure: 29.35 "Hg

Humidity: 96%

Dew point: 48 °F

Location of KrefeldLocation

Historic Weather in Krefeld — Graph

°F

Krefeld temperature yesterday

Maximum temperature yesterday: 48 °F (at 6:00 PM)
Minimum temperature yesterday: 40 °F (at 1:00 PM)
Average temperature yesterday: 45 °F

Past Weeks' High & Low Weather Summary

 TemperatureHumidityPressure
High65 °F (Mar 17, 3:00 PM)99% (Mar 20, 1:00 AM)30.39 "Hg (Mar 20, 1:00 AM)
Low31 °F (Mar 20, 3:00 AM)35% (Mar 17, 5:00 PM)29.26 "Hg (Mar 29, 8:00 PM)
Average44 °F79%30.01 "Hg
* Reported Mar 16 3:00 AM — Mar 31 4:00 AM, Krefeld, Weather by CustomWeather, © 2015

Note: Actual official high and low records may vary slightly from our data, if they occured in-between our weather recording intervals... More about our weather records

Advertising

Krefeld weather history for previous 24 hours

 ConditionsComfort  
Time TempWeatherWind HumidityBarometerVisibility
4:00 AM
Tue, Mar 31
49 °FLight rain. Low clouds.9 mph96%29.35 "Hg7 mi
3:00 AM42 °FRain. Low clouds.7 mph99%29.44 "Hg5 mi
2:00 AM42 °FRain. Low clouds.7 mph97%29.55 "Hg5 mi
1:00 AM42 °FLight rain. Overcast.6 mph89%29.66 "Hg12 mi
12:00 AM44 °FLight rain. Overcast.9 mph68%29.72 "Hg16 mi
10:00 PM
Mon, Mar 30
43 °FOvercast.5 mph62%29.82 "Hg31 mi
9:00 PM42 °FPassing clouds.3 mph64%29.85 "Hg31 mi
8:00 PM46 °FPassing clouds.6 mph50%29.86 "Hg31 mi
7:00 PM47 °FPassing clouds.8 mph44%29.85 "Hg31 mi
6:00 PM48 °FScattered clouds.7 mph45%29.84 "Hg31 mi
4:00 PM47 °FPartly sunny.12 mph54%29.79 "Hg31 mi
3:00 PM47 °FPartly sunny.13 mph55%29.75 "Hg25 mi
2:00 PM47 °FPartly sunny.12 mph62%29.72 "Hg16 mi
1:00 PM40 °FSleet. Overcast.8 mph82%29.71 "Hg7 mi
12:00 PM47 °FOvercast.10 mph56%29.66 "Hg31 mi
10:00 AM45 °FScattered clouds.13 mph64%29.60 "Hg34 mi
9:00 AM45 °FPartly sunny.8 mph75%29.57 "Hg34 mi
8:00 AM44 °FPartly sunny.7 mph74%29.54 "Hg34 mi
7:00 AM44 °FPassing clouds.7 mph75%29.50 "Hg37 mi
6:00 AM44 °FPassing clouds.7 mph75%29.47 "Hg28 mi
Weather by CustomWeather, © 2015

See weather overviewHow to use our weather pages